[[[{"header":{"parameterUnit":"kt","parameterCategory":2,"dx":1,"dy":1,"la1":30.253999710083008,"la2":30.299108505249023,"lo1":-89.0895004272461,"lo2":-89.04439544677734,"nx":28,"ny":28,"refTime":"2022-10-21T21:00:00:Z","depth":0,"parameterNumber":1,"parameterNumberName":"U-component_of_WINDS"},"data":[-4.2882,-4.2962,-4.2994,-4.3101,-4.3147,-4.3226,-4.3264,-4.3317,-4.3368,-4.3466,-4.3528,-4.3569,-4.3632,-4.3714,-4.3784,-4.38,-4.3828,-4.3833,-4.3852,-4.3799,-4.3794,-4.3789,-4.3772,-4.3838,-4.3838,-4.3902,-4.3902,-4.3903,-4.2841,-4.2888,-4.2954,-4.3039,-4.3096,-4.311,-4.3179,-4.3226,-4.3296,-4.3359,-4.3421,-4.351,-4.3585,-4.3648,-4.3725,-4.3764,-4.3775,-4.3782,-4.378,-4.379,-4.3735,-4.3716,-4.3772,-4.3772,-4.3772,-4.3772,-4.3772,-4.3772,-4.2776,-4.2823,-4.2893,-4.2965,-4.3016,-4.3073,-4.3124,-4.3172,-4.3237,-4.3321,-4.3347,-4.3427,-4.3496,-4.3605,-4.3649,-4.3713,-4.3711,-4.3729,-4.3734,-4.3738,-4.3738,-4.3642,-4.3728,-4.3728,-4.3728,-4.3728,-4.3728,0,-4.2738,-4.2762,-4.2827,-4.2902,-4.2956,-4.3017,-4.3078,-4.311,-4.3171,-4.3222,-4.3299,-4.3348,-4.3447,-4.3523,-4.3602,-4.3645,-4.3666,-4.3671,-4.3684,-4.3673,-4.3652,-4.3665,-4.3573,-4.3669,-4.3668,-4.3668,-4.3668,-4.3668,-4.2675,-4.2726,-4.2815,-4.2856,-4.2897,-4.2963,-4.3009,-4.3059,-4.3106,-4.3189,-4.3228,-4.3305,-4.3369,-4.3487,-4.3543,-4.3617,-4.3628,-4.3661,-4.3639,-4.3626,-4.3629,-4.3625,-4.3631,-4.3664,-4.3664,-4.3665,-4.3665,0,-4.2637,-4.2689,-4.2777,-4.286,-4.2883,-4.2933,-4.3005,-4.3054,-4.3096,-4.3169,-4.3189,-4.3255,-4.333,-4.3382,-4.3477,-4.3502,-4.3587,-4.3596,-4.3564,-4.3569,-4.3603,-4.36,-4.3708,-4.3725,-4.3656,-4.3657,-4.3657,0,-4.2604,-4.2668,-4.2742,-4.279,-4.2864,-4.2912,-4.2984,-4.3027,-4.3087,-4.3145,-4.3176,-4.323,-4.3288,-4.335,-4.3387,-4.3466,-4.3483,-4.3507,-4.3516,-4.3505,-4.3501,-4.353,-4.3527,-4.3534,-4.3534,-4.3533,-4.3533,0,-4.2538,-4.2653,-4.2732,-4.2766,-4.2861,-4.2897,-4.2939,-4.3006,-4.3051,-4.3117,-4.3146,-4.322,-4.326,-4.3317,-4.3363,-4.3347,-4.3461,-4.3448,-4.3485,-4.3484,-4.3507,-4.3505,-4.3588,-4.3532,-4.3532,-4.3531,-4.3531,0,-4.2519,-4.2584,-4.2691,-4.2771,-4.2799,-4.2851,-4.2927,-4.2983,-4.3052,-4.3079,-4.3131,-4.3158,-4.323,-4.3214,-4.3315,-4.328,-4.3318,-4.3348,-4.3351,-4.3361,-4.334,-4.338,-4.3454,-4.3464,-4.337,-4.3369,-4.3368,0,-4.243,-4.2551,-4.2593,-4.2694,-4.2757,-4.2788,-4.2847,-4.2907,-4.2947,-4.3007,-4.3051,-4.3119,-4.3117,-4.3146,-4.3189,-4.3238,-4.3283,-4.3233,-4.332,-4.3322,-4.33,-4.3369,-4.3367,-4.3432,-4.3351,-4.3353,-4.3354,0,-4.2367,-4.2481,-4.2496,-4.2537,-4.2624,-4.2677,-4.2744,-4.2822,-4.2859,-4.2923,-4.2981,-4.3078,-4.3081,-4.3127,-4.3156,-4.3199,-4.3254,-4.3196,-4.3198,-4.3205,-4.3347,-4.3345,-4.3356,-4.3264,-4.3267,-4.3268,-4.3341,0,-4.2327,-4.2394,-4.2436,-4.2526,-4.2575,-4.264,-4.2695,-4.2739,-4.2763,-4.2803,-4.2889,-4.2952,-4.3031,-4.3057,-4.308,-4.316,-4.3154,-4.3156,-4.3143,-4.3188,-4.3213,-4.3224,-4.3101,-4.3101,-4.3101,-4.3101,0,0,-4.2229,-4.2326,-4.237,-4.2437,-4.2481,-4.2511,-4.2576,-4.2623,-4.2716,-4.2746,-4.2739,-4.2883,-4.2934,-4.3033,-4.3051,-4.3083,-4.3102,-4.3084,-4.3166,-4.3173,-4.318,-4.3206,-4.3216,-4.3101,-4.3101,-4.3101,-4.3101,0,-4.2225,-4.2276,-4.2339,-4.239,-4.2465,-4.2505,-4.252,-4.26,-4.2629,-4.2713,-4.2737,-4.2796,-4.2909,-4.296,-4.3001,-4.3074,-4.3089,-4.3094,-4.3115,-4.3164,-4.3171,-4.3177,-4.3204,-4.3213,-4.3101,-4.3101,-4.3101,0,-4.2173,-4.2232,-4.2268,-4.2369,-4.2419,-4.2483,-4.2483,-4.255,-4.2598,-4.2628,-4.2711,-4.2753,-4.2825,-4.2911,-4.2952,-4.2947,-4.3073,-4.3043,-4.3045,-4.305,-4.31,-4.3108,-4.3116,-4.3017,-4.3016,-4.3016,0,0,-4.2163,-4.2225,-4.2304,-4.2373,-4.2402,-4.2462,-4.2501,-4.2528,-4.2592,-4.2618,-4.2671,-4.2733,-4.28,-4.2843,-4.2908,-4.2995,-4.3014,-4.303,-4.3034,-4.3037,-4.3044,-4.3094,-4.3103,-4.3014,-4.3014,-4.3014,0,0,-4.2158,-4.2251,-4.2263,-4.235,-4.241,-4.2492,-4.2532,-4.2549,-4.2613,-4.2611,-4.266,-4.2679,-4.276,-4.28,-4.2768,-4.2904,-4.2891,-4.2899,-4.2875,-4.2881,-4.2885,-4.2873,-4.2776,0,0,0,0,0,-4.2182,-4.224,-4.225,-4.2272,-4.24,-4.2486,-4.2503,-4.2544,-4.2534,-4.2565,-4.2613,-4.2626,-4.2793,-4.2766,-4.2787,-4.2823,-4.2988,-4.2993,-4.2997,-4.2987,-4.2992,-4.2997,0,0,0,0,0,0,-4.2191,-4.2218,-4.2248,-4.2332,-4.2361,-4.2485,-4.2476,-4.2489,-4.2532,-4.2533,-4.2616,-4.2628,-4.2666,-4.2757,-4.2776,-4.2809,-4.277,-4.299,-4.2994,-4.2997,-4.2988,-4.2993,-4.2997,0,0,0,0,0,-4.2199,-4.2221,-4.2414,-4.2331,-4.2356,-4.2426,-4.2474,-4.2485,-4.2519,-4.2592,-4.2605,-4.2546,-4.2665,-4.2684,-4.2769,-4.2799,-4.2757,-4.2764,-4.2993,-4.2996,-4.2998,-4.2991,0,0,0,0,0,0,-4.2204,-4.2231,-4.242,-4.2429,-4.2312,-4.242,-4.2438,-4.2481,-4.2576,-4.2589,-4.2525,-4.2524,-4.2666,-4.2681,-4.2695,-4.2794,-4.2746,-4.2754,-4.2758,-4.2995,-4.2997,-4.2999,0,0,0,0,0,0,-4.222,-4.2239,-4.2425,-4.2398,-4.2405,-4.2414,-4.243,-4.2508,-4.2577,-4.2503,-4.2506,-4.2523,-4.2644,-4.2678,-4.2689,-4.2809,-4.2738,-4.2745,-4.275,-4.2753,-4.2997,-4.2999,0,0,0,0,0,0,-4.2229,-4.2245,-4.2396,-4.2401,-4.2407,-4.2514,-4.2483,-4.2611,-4.2554,-4.2499,-4.255,-4.2548,-4.2642,-4.2654,-4.2686,-4.28,-4.2807,-4.2739,-4.2743,-4.2747,-4.2749,0,0,0,0,0,0,0,-4.2236,-4.2115,-4.2365,-4.2404,-4.2409,-4.2515,-4.2517,-4.252,-4.2554,-4.2552,-4.2551,-4.2549,-4.27,-4.2707,-4.2715,-4.2793,0,0,-4.2738,-4.2741,0,0,0,0,0,0,0,0,-4.2109,-4.2114,-4.2365,-4.2367,-4.2369,-4.2515,-4.2517,-4.2519,-4.2553,-4.2552,-4.2551,-4.255,-4.2702,-4.2708,-4.2714,0,0,0,0,0,0,0,0,0,0,0,0,0,0,0,-4.2365,-4.2367,0,-4.2515,-4.2517,-4.2519,-4.2553,-4.2552,-4.2551,-4.255,-4.2704,-4.2709,-4.2714,0,0,0,0,0,0,0,0,0,0,0,0,0,0,0,0,0,0,0,0,0,0,0,0,0,0,0,0,0,0,0,0,0,0,0,0,0,0,0,0,0,0,0,0,0,0,0,0,0,0,0,0,0,0,0,0,0,0,0,0,0,0,0,0,0,0,0,0,0]}],[{"header":{"parameterUnit":"kt","parameterCategory":2,"dx":1,"dy":1,"la1":30.253999710083008,"la2":30.299108505249023,"lo1":-89.0895004272461,"lo2":-89.04439544677734,"nx":28,"ny":28,"refTime":"2022-10-21T21:00:00:Z","depth":0,"parameterNumber":2,"parameterNumberName":"V-component_of_WINDS"},"data":[4.8181,4.8119,4.8084,4.7995,4.7948,4.788,4.7843,4.7792,4.7741,4.7653,4.7595,4.7549,4.748,4.7399,4.7331,4.7311,4.7284,4.7292,4.7266,4.7273,4.7271,4.7269,4.7282,4.7287,4.7287,4.7264,4.7263,4.7263,4.8195,4.8149,4.8092,4.8011,4.7961,4.7934,4.7866,4.7825,4.7763,4.7699,4.7639,4.7557,4.7485,4.741,4.7333,4.73,4.728,4.7282,4.7283,4.7272,4.7278,4.7293,4.73,4.73,4.73,4.73,4.73,4.73,4.8212,4.8176,4.8106,4.8043,4.7991,4.7936,4.7894,4.7839,4.7779,4.7697,4.7661,4.7588,4.7513,4.7398,4.7349,4.7289,4.7278,4.7266,4.7263,4.726,4.7265,4.7305,4.7273,4.7273,4.7273,4.7273,4.7273,0,4.8212,4.8185,4.8126,4.8057,4.8007,4.7948,4.7887,4.7859,4.7781,4.7734,4.7662,4.7613,4.7515,4.744,4.7357,4.7306,4.7266,4.7257,4.7248,4.7265,4.7293,4.7277,4.729,4.7257,4.7256,4.7256,4.7256,4.7256,4.8226,4.8187,4.8094,4.8057,4.8014,4.7955,4.7911,4.7845,4.7801,4.7712,4.7681,4.7606,4.7542,4.7428,4.7356,4.728,4.7259,4.7252,4.7246,4.7267,4.7258,4.726,4.7256,4.7253,4.7253,4.7253,4.7254,0,4.8237,4.8175,4.8101,4.801,4.7986,4.7948,4.7868,4.7826,4.7774,4.7708,4.7689,4.7605,4.7532,4.7461,4.7361,4.7326,4.7258,4.724,4.7285,4.7277,4.7263,4.7265,4.7228,4.7219,4.7215,4.7215,4.7215,0,4.8223,4.8173,4.8083,4.8043,4.7986,4.7919,4.7863,4.7812,4.7745,4.7693,4.7638,4.759,4.7505,4.7445,4.7392,4.7323,4.7304,4.7272,4.7258,4.7276,4.728,4.7247,4.7246,4.7228,4.7228,4.7229,4.7229,0,4.8246,4.8137,4.8073,4.8038,4.7932,4.7903,4.7857,4.778,4.7736,4.7666,4.7636,4.7559,4.7516,4.7456,4.7389,4.7388,4.7303,4.7288,4.7269,4.7271,4.7251,4.7253,4.7241,4.7229,4.7229,4.7229,4.7229,0,4.8223,4.8159,4.8074,4.7985,4.7959,4.7914,4.7836,4.7781,4.7704,4.7668,4.7612,4.7565,4.7499,4.749,4.7397,4.7416,4.7377,4.7339,4.7337,4.7324,4.7315,4.7317,4.7314,4.731,4.7317,4.7317,4.7318,0,4.8267,4.8164,4.8106,4.8025,4.7968,4.7911,4.786,4.7793,4.7741,4.7682,4.7623,4.7554,4.7532,4.75,4.7464,4.7398,4.7374,4.74,4.731,4.7308,4.7334,4.7331,4.7348,4.7324,4.7326,4.7325,4.7325,0,4.8292,4.8165,4.8154,4.8111,4.8012,4.7962,4.7903,4.7822,4.7786,4.7714,4.7662,4.7562,4.7542,4.7488,4.7439,4.7405,4.7388,4.7386,4.7382,4.7388,4.7324,4.7341,4.7337,4.7363,4.7362,4.7361,4.7331,0,4.8273,4.8211,4.818,4.8084,4.8034,4.7978,4.7902,4.7859,4.782,4.7765,4.7685,4.7606,4.7517,4.7493,4.7451,4.7397,4.7393,4.737,4.7352,4.7352,4.734,4.7335,4.7378,4.7377,4.7376,4.7375,0,0,4.8329,4.824,4.8175,4.8116,4.8069,4.8009,4.7956,4.7902,4.7794,4.7762,4.7753,4.76,4.7534,4.7444,4.7438,4.7402,4.7384,4.7385,4.7353,4.7351,4.7349,4.7338,4.7334,4.7373,4.7373,4.7373,4.7373,0,4.8306,4.8248,4.8198,4.8141,4.8053,4.7998,4.7986,4.7887,4.7848,4.7769,4.7716,4.7657,4.7535,4.7473,4.7425,4.7396,4.7356,4.7375,4.7387,4.7348,4.7347,4.7346,4.7335,4.7332,4.7371,4.7371,4.7371,0,4.8317,4.8247,4.8214,4.8106,4.8046,4.7986,4.7952,4.7888,4.7842,4.7771,4.7692,4.7636,4.7545,4.747,4.7432,4.7421,4.7336,4.7347,4.735,4.7343,4.7301,4.73,4.7299,4.7311,4.7311,4.7311,0,0,4.8307,4.8249,4.8149,4.8094,4.8062,4.7977,4.7936,4.7891,4.7813,4.7782,4.7708,4.7632,4.756,4.7513,4.7441,4.7369,4.7343,4.7343,4.7346,4.7349,4.7343,4.7302,4.7301,4.7311,4.7311,4.7311,0,0,4.8299,4.8183,4.8158,4.8086,4.8016,4.791,4.7879,4.7843,4.777,4.7767,4.7683,4.7659,4.7586,4.7531,4.7549,4.7432,4.7417,4.7411,4.747,4.7473,4.7475,4.7489,4.7497,0,0,0,0,0,4.8236,4.8199,4.8177,4.8153,4.8012,4.7924,4.7905,4.7837,4.783,4.7807,4.774,4.7699,4.7524,4.7537,4.7513,4.7493,4.7318,4.7317,4.7316,4.7375,4.7378,4.7381,0,0,0,0,0,0,4.8226,4.8198,4.8177,4.8072,4.8039,4.7925,4.7897,4.7877,4.7831,4.7825,4.7714,4.7695,4.7633,4.7545,4.7524,4.7507,4.7504,4.7318,4.7317,4.7316,4.7376,4.7379,4.7381,0,0,0,0,0,4.8218,4.8195,4.7987,4.8071,4.8043,4.7945,4.7897,4.7881,4.7843,4.7737,4.7718,4.7796,4.7635,4.7612,4.7532,4.7518,4.7518,4.751,4.7317,4.7316,4.7315,4.7377,0,0,0,0,0,0,4.8212,4.8178,4.798,4.7968,4.808,4.795,4.7927,4.7885,4.7757,4.7738,4.7816,4.7813,4.7635,4.7617,4.76,4.7526,4.7529,4.7521,4.7517,4.7316,4.7316,4.7315,0,0,0,0,0,0,4.819,4.8169,4.7974,4.7989,4.7979,4.7955,4.7935,4.7855,4.7756,4.7843,4.7836,4.7816,4.7659,4.7621,4.7608,4.7486,4.7538,4.753,4.7525,4.7522,4.7316,4.7315,0,0,0,0,0,0,4.818,4.8162,4.7991,4.7984,4.7975,4.7843,4.7882,4.774,4.7775,4.7849,4.7776,4.7776,4.7663,4.7648,4.7613,4.7497,4.7489,4.7538,4.7533,4.7529,4.7527,0,0,0,0,0,0,0,4.8171,4.8309,4.8047,4.7979,4.7971,4.7864,4.7861,4.7858,4.7775,4.7775,4.7776,4.7776,4.758,4.7572,4.7564,4.7507,0,0,4.7538,4.7535,0,0,0,0,0,0,0,0,4.8315,4.831,4.8047,4.8045,4.8042,4.7864,4.7861,4.7859,4.7775,4.7775,4.7775,4.7776,4.7578,4.7571,4.7564,0,0,0,0,0,0,0,0,0,0,0,0,0,0,0,4.8047,4.8045,0,4.7864,4.7861,4.7859,4.7775,4.7775,4.7775,4.7776,4.7576,4.757,4.7565,0,0,0,0,0,0,0,0,0,0,0,0,0,0,0,0,0,0,0,0,0,0,0,0,0,0,0,0,0,0,0,0,0,0,0,0,0,0,0,0,0,0,0,0,0,0,0,0,0,0,0,0,0,0,0,0,0,0,0,0,0,0,0,0,0,0,0,0,0]}]]]